User: anonymous   Login
Location: Unspecified
(0.0000°N, 0.0000°E)
Time: 23:01:59
(UTC+00:00)
Language:

STARLINK-31005 - Orbit

View from above orbital plane
View from above orbital plane
View from above satellite
View from above satellite

Ground track
Ground track

The orbit is defined by the following mean orbital elements,

1 58486U          26145.57567667 +.00000000 +00000-0 +48618-4 0 00002
2 58486  43.0017 349.5450 0001740 271.1620  88.9033 15.27585387    01
Epoch (UTC): 25 May 2026 13:48:58
Eccentricity: 0.0001740
inclination: 43.0017°
perigee height: 482 km
apogee height: 484 km
right ascension of ascending node: 349.5450°
argument of perigee: 271.1620°
revolutions per day: 15.27585387
mean anomaly at epoch: 88.9033°

The dashed part of the orbit path shows where the satellite is in the earth's shadow,  

DLR